Regional Weather Roundup
Issued by NWS Charleston, SC

Current Version | Previous Version | Graphics & Text | Print | Product List | Glossary On
Versions: 1 2 3 4 5 6 7 8 9 10 11 12 13 14 15 16 17 18 19 20 21 22 23 24 25 26 27 28 29 30 31 32 33 34 35 36 37 38 39 40 41 42 43 44 45 46 47 48 49 50
000
ASUS42 KCHS 050027
RWRCHS

REGIONAL WEATHER ROUNDUP
NATIONAL WEATHER SERVICE CHARLESTON SC
800 PM EDT TUE AUG 04 2015

NOTE: "FAIR" INDICATES FEW OR NO CLOUDS BELOW 12,000 FEET WITH NO
SIGNIFICANT WEATHER AND/OR OBSTRUCTIONS TO VISIBILITY.

NOT ALL STATIONS ARE QUALITY CONTROLLED BY THE NATIONAL
WEATHER SERVICE. USE DATA WITH CAUTION...ESPECIALLY
DEWPOINT OBSERVATIONS.

SCZ027-030-031-034>040-042>050-050100-
...SOUTHEAST SOUTH CAROLINA...

CITY           SKY/WX    TMP DP  RH WIND       PRES   REMARKS
N CHARLESTON   PTCLDY    79  76  90 S10       29.96R
6HR MIN TEMP:  79; 6HR MAX TEMP:  92;

WATERFRONT PRK   N/A     85  79  82 SW7       29.94R HX  98
MOUNT PLEASANT FAIR      84  79  84 S7        29.96S HX  96
JOHNS ISLAND   FAIR      84  79  84 S8        29.97S HX  96
PINOPOLIS      NOT AVBL
MONCKS CORNER  FAIR      84  77  79 CALM      29.95R HX  94
SUMMERVILLE    FAIR      86  79  79 S5        29.96R HX  99
BEAUFORT MCAS  PTCLDY    86  77  74 S6        29.96R HX  97
6HR MIN TEMP:  86; 6HR MAX TEMP:  93;

BEAUFORT ARPT  FAIR      82  79  89 S6        29.97R HX  93
HILTON HEAD IS CLEAR     84  79  84 S6        29.99R HX  96
WALTERBORO     PTCLDY    88  73  62 S8        29.96S HX  96
ALLENDALE      FAIR      90  73  58 CALM      29.94S HX  98

...SOUTHERN MIDLANDS AND PEE DEE...

CITY           SKY/WX    TMP DP  RH WIND       PRES   REMARKS
GEORGETOWN     NOT AVBL
KINGSTREE      NOT AVBL
ORANGEBURG     PTCLDY    90  71  53 SW7       29.94R HX  96
6HR MIN TEMP:  90; 6HR MAX TEMP:  98;

BARNWELL       FAIR      90  73  58 CALM      29.95R HX  98
AIKEN          FAIR      88  61  40 SW5       29.99R
MANNING        RAIN      86  73  66 S5        29.94R HX  93
COLUMBIA       PTCLDY    97  61  30 CALM      29.92R HX  97
6HR MIN TEMP:  96; 6HR MAX TEMP: 102;

SUMTER         CLEAR     94  63  35 W3        29.91R HX  95
6HR MIN TEMP:  92; 6HR MAX TEMP:  99;

FLORENCE       CLEAR     91  72  53 SE6       29.92R HX  98
6HR MIN TEMP:  91; 6HR MAX TEMP:  96;

MYRTLE BEACH   MOCLDY    86  77  74 S13       29.95R HX  97
N MYRTLE BEACH MOCLDY    84  78  82 SW10      29.94S HX  95
6HR MIN TEMP:  83; 6HR MAX TEMP:  87; 6HR PCP: TRACE;


$$

GAZ063-065-086>088-099>101-113>116-118-119-134>141-150-050100-
...SOUTHEAST GEORGIA...

CITY           SKY/WX    TMP DP  RH WIND       PRES   REMARKS
SAVANNAH ARPT  PTCLDY    86  77  74 S10       29.97R HX  97
6HR MIN TEMP:  86; 6HR MAX TEMP:  94;

HUNTER AAF     PTCLDY    86  81  83 SW10      29.95R HX 102
6HR MIN TEMP:  86; 6HR MAX TEMP:  92;

FORT STEWART   PTCLDY    84  73  70 S2        29.95S HX  91
STATESBORO     CLEAR     87  77  72 S3        29.96S HX 100
SYLVANIA       CLEAR     89  78  69 CALM      29.97R HX 102
CLAXTON        NOT AVBL

...CSRA...CENTRAL AND FAR SOUTHEAST GEORGIA...

CITY           SKY/WX    TMP DP  RH WIND       PRES   REMARKS
THOMSON        PTCLDY    93  73  52 CALM      30.00R HX 101
AUGUSTA-BUSH   PTCLDY    82  69  64 S5        29.93R
6HR MIN TEMP:  82; 6HR MAX TEMP: 100;

AUGUSTA-DANIEL PTCLDY    93  65  39 S6        29.96R HX  95
SWAINSBORO     MOCLDY    90  73  58 N3        29.99R HX  98
VIDALIA        PTCLDY    82  72  69 S8        29.99S
EASTMAN        FAIR      82  70  66 SW5       30.01R
HAZLEHURST     FAIR      83  73  71 S7        29.98S
ALMA           PTCLDY    79  72  79 S6        30.00R
6HR MIN TEMP:  79; 6HR MAX TEMP:  95;

WAYCROSS       PTCLDY    80  75  86 SW5       30.01R
JESUP          FAIR      82  72  69 SW8       30.00R
BAXLEY         FAIR      81  72  74 SW3       30.00R
BRUNSWICK      CLOUDY    79  72  78 W6        30.01R
SAINT SIMONS   CLOUDY    79  73  82 W9        29.99S
6HR MIN TEMP:  79; 6HR MAX TEMP:  89;


$$

SCZ027-028-034-036>038-045-046-048>050-GAZ119-141-050100-
...LAKE AND SUPPLEMENTAL COASTAL OBSERVATIONS...

STATION/POSITION TIME  TEMP    WIND        PRES    WAVE   SWELL
                       AIR SEA DIR/SP/G            HT/PER HT/PER/DIR
                 (UTC) (F)     (DEG/KT/KT) (MB)    (FT/S) (FT/S/D)
UPR LAKE MARION  NOT AVBL
WINYAH BAY       2300   85     190/ 11     1013.0R
LAKE MURRAY      2300   96     180/  4/  6 1012.2S
ACE BASIN NERRS  2245   86     190/  1     1015.0
FORT PULASKI     0000   84 86  200/  8/ 12 1015.4R
SAPELO ISLAND    0000   82     250/  8     1015.0S

$$

ANZ835-935-AMZ111-154-330-350-352-354-370-450-454-472-050100-
...C-MAN AND BUOY OBSERVATIONS...

STATION/POSITION TIME  TEMP    WIND        PRES    WAVE   SWELL
                       AIR SEA DIR/SP/G            HT/PER HT/PER/DIR
                 (UTC) (F)     (DEG/KT/KT) (MB)    (FT/S) (FT/S/D)
BUOY 41004       2350   82 83  210/ 16/ 19 1014.3R   5/ 6   2/10
BUOY 41008       2350   83 83  230/ 14/ 17 1015.3F   3/ 6   2/130/ 7
FOLLY BEACH CMAN 0000   83     200/ 13/ 15 1014.9R
CAPERS NEARSHORE 2308   83     220/ 16/ 19 1014.8R
FRIPP NEARSHORE  NOT AVBL


STATION/POSITION TIME  TEMP    WIND        PRES    WAVE   SWELL
                       AIR SEA DIR/SP/G            HT/PER HT/PER/DIR
                 (UTC) (F)     (DEG/KT/KT) (MB)    (FT/S) (FT/S/D)
5E ST. MARYS GA  2321      82                N/A     2/ 7
FRYING PAN BUOY  2350   83 81  210/ 19/ 23 1014.3R   7/ 8   5/180/ 8
BUOY 41025       2350   80 83  180/ 19/ 21 1015.2F   5/ 6   3/110/11
CAPE LOOKOUT NC  0000   80     200/ 10/ 14 1013.8R
BUOY 41002       2350   82 81  190/ 16/ 17 1018.0R   5/ 8   3/260/ 8
BUOY 41010       2320   84 84  200/ 10/ 12 1018.1R
ST AUGUSTINE FL  0000   80 78  230/  6/  8 1017.4S


$$


USA.gov is the U.S. government's official web portal to all federal, state and local government web resources and services.